Location: La Bastide
(43.1661°N, 1.2755°E)
Time: 07:43:45
(UTC+00:00)

Cosmos 1953 Rocket - Pass Details

Date: 24 March 2026
Orbit: 599 x 626 km, 82.5° (Epoch: 18 April)

Event Time Altitude Azimuth Distance (km) Brightness Sun altitude
Rises 04:20:39 0° 358° (N) 2,902 7.2 -17.0°
Reaches altitude 10° 04:23:00 10° 6° (N) 1,995 6.5 -16.6°
Maximum altitude 04:27:11 40° 77° (ENE) 916 5.0 -15.9°
Drops below altitude 10° 04:31:21 10° 148° (SSE) 1,991 6.4 -15.2°
Sets 04:33:41 0° 155° (SSE) 2,895 7.1 -14.8°
